Vorticity
24 28 13 8 20 5 4 2 9 13 9 60 18 55 15 5 10 7 1 33 -2 6 7 4 5 8 6 5 -19 0 13 16 -4 5 6 6 6 5 5 3 4 4 5 8 6
24 29 13 5 27 4 -0 23 28 20 22 35 15 -5 46 13 8 1 -1 34 2 6 6 4 5 8 6 5 13 10 16 14 10 13 11 6 7 6 4 5 4 4 5 5 5
25 25 20 6 14 -0 26 -8 8 51 45 17 4 22 18 28 9 10 -7 25 14 3 8 4 3 5 10 6 11 9 3 14 4 13 7 4 9 5 5 4 5 4 4 4 5
28 25 16 11 15 -0 18 2 2 21 49 25 12 12 24 60 16 5 11 19 23 -2 9 5 4 3 9 10 7 11 32 5 11 22 11 1 -1 3 5 5 3 3 4 6 3
20 32 15 14 8 9 1 9 4 8 52 50 14 7 15 28 49 12 5 11 8 14 2 9 5 3 6 12 7 31 -20 12 16 23 15 7 6 1 3 5 5 4 0 8 7
18 30 17 16 -4 6 -2 4 8 11 31 32 43 14 11 16 51 21 5 8 8 21 6 9 4 4 3 11 5 8 15 -2 -11 29 16 13 1 2 3 3 6 3 7 0 9
20 39 20 8 14 3 -0 -3 -1 13 15 33 23 30 7 7 23 53 11 4 26 5 21 10 0 7 4 11 7 4 9 11 6 15 30 31 4 5 3 -1 3 5 1 3 7
10 35 24 9 9 4 21 -11 3 9 10 32 24 16 25 12 24 45 21 4 9 -1 29 15 4 5 4 7 10 10 6 5 11 -0 7 35 12 8 3 3 5 2 -4 2 2
11 33 26 8 11 -1 17 6 3 7 12 35 22 16 19 8 4 29 44 8 -1 21 27 17 -10 19 6 5 9 -8 14 16 -13 13 12 14 15 -13 25 14 -0 4 7 4 -0
10 26 31 11 13 4 9 12 9 10 18 34 29 16 20 11 6 33 51 12 1 7 10 21 -2 24 6 2 -0 0 22 8 15 16 16 -24 10 33 -46 -2 -6 0 1 2 7
4 35 34 13 9 8 5 -7 8 7 13 13 47 17 16 9 14 45 47 44 13 -1 14 24 -0 16 9 3 2 6 11 21 12 6 9 15 12 18 7 24 12 23 16 17 5
3 33 31 16 12 12 4 7 10 4 7 20 43 20 10 8 25 44 -2 28 14 4 11 25 -18 27 9 9 2 0 8 12 15 13 16 24 7 7 28 -16 17 14 9 11 12
3 33 27 17 14 9 -3 -4 14 5 13 12 30 27 17 10 40 28 20 15 29 1 9 18 -21 42 11 11 7 1 5 11 2 3 14 34 17 15 5 19 10 10 5 2 8
3 21 25 31 19 6 9 -1 2 2 18 -6 14 23 36 13 8 35 18 17 37 6 5 23 -14 15 11 11 7 8 -1 10 2 1 9 12 21 8 21 27 -12 14 14 11 13
6 18 38 33 13 5 9 -2 -4 16 18 19 20 8 29 24 12 5 10 21 21 12 5 7 12 4 -10 15 6 6 3 5 9 7 10 17 27 5 7 8 28 18 1 -0 18
3 11 34 34 18 10 6 8 -3 3 14 7 16 29 23 51 -4 26 46 36 9 8 9 7 2 10 27 12 12 12 7 4 6 5 -5 10 57 -11 30 6 16 13 22 8 17
3 2 27 46 27 15 5 7 -2 -0 14 11 10 27 26 35 23 34 19 22 20 18 14 2 17 3 -1 9 11 7 7 5 3 -1 3 4 5 10 29 19 23 9 5 9 6
7 7 14 34 36 19 9 9 6 -5 15 16 -12 5 -8 61 29 -39 -47 -26 13 12 12 -1 17 3 -0 15 5 7 5 2 0 1 7 5 9 4 10 6 19 10 17 4 5
13 -0 4 19 31 35 10 3 5 5 -2 17 13 31 14 15 8 5 13 -36 4 11 12 23 -2 14 11 20 11 5 3 4 4 3 3 3 2 6 9 11 5 11 9 14 8
9 -6 4 15 44 44 16 14 3 2 3 4 9 14 23 15 15 -13 10 5 16 12 35 25 1 -5 -3 9 11 10 8 4 4 7 5 6 4 3 8 19 11 10 11 15 13
1 1 -1 4 28 43 27 14 10 2 5 3 3 11 15 23 -5 -0 25 7 5 -1 3 21 -6 -1 6 10 10 13 10 9 4 -0 -0 8 6 5 11 17 23 13 16 13 17
-1 3 4 3 18 47 27 25 14 10 4 7 7 6 10 16 11 6 15 25 17 2 -1 3 12 21 14 3 16 12 11 9 6 3 4 12 8 3 5 12 19 21 20 21 11
-1 1 5 -1 -3 35 39 31 4 15 8 5 6 4 7 9 11 23 -1 28 17 8 17 14 4 12 11 -2 -4 1 -4 3 -3 6 -9 4 7 -10 14 12 14 28 13 12 20
2 3 -0 1 7 20 50 18 25 8 11 7 2 1 5 6 6 11 17 6 4 5 17 12 20 17 15 13 10 14 -3 5 11 10 17 13 2 9 5 13 13 18 19 14 6
5 5 9 9 5 14 58 36 26 14 13 12 9 4 6 3 5 6 8 15 12 11 7 4 -1 -2 7 19 13 13 9 11 12 2 8 -3 20 6 6 21 14 9 12 8 2
9 9 4 5 4 15 40 30 15 29 12 5 14 10 5 3 3 6 6 8 10 11 12 11 12 18 15 6 20 21 18 12 12 7 5 -4 -3 9 13 6 8 5 11 13 17
5 5 6 4 2 9 40 33 18 16 22 11 4 12 10 8 5 5 7 6 5 6 8 9 10 11 10 12 14 9 14 23 27 14 17 9 19 13 25 3 15 5 16 15 19
Height
5692 5678 5669 5662 5652 5644 5635 5625 5614 5602 5592 5584 5583 5585 5595 5603 5613 5623 5636 5642 5649 5657 5667 5678 5688 5695 5702 5711 5721 5727 5733 5745 5759 5771 5779 5784 5791 5797 5802 5810 5817 5824 5831 5838 5842
5687 5673 5663 5655 5647 5639 5629 5617 5604 5590 5581 5575 5575 5575 5580 5590 5600 5611 5620 5626 5634 5647 5659 5670 5680 5688 5696 5704 5713 5718 5728 5744 5758 5765 5771 5776 5784 5790 5798 5805 5811 5818 5827 5833 5838
5684 5670 5658 5650 5642 5634 5624 5611 5597 5581 5572 5569 5568 5569 5572 5578 5587 5596 5607 5619 5626 5636 5650 5662 5672 5681 5690 5698 5707 5716 5728 5743 5746 5753 5761 5769 5775 5783 5791 5797 5804 5813 5820 5828 5833
5681 5666 5654 5646 5637 5629 5618 5607 5593 5579 5567 5564 5563 5563 5565 5568 5577 5587 5595 5609 5621 5627 5642 5654 5666 5676 5685 5693 5702 5711 5724 5730 5740 5743 5751 5759 5769 5777 5784 5791 5799 5808 5815 5822 5826
5678 5662 5651 5642 5634 5625 5615 5603 5590 5577 5564 5558 5559 5559 5560 5561 5565 5576 5588 5598 5612 5623 5633 5647 5660 5671 5679 5688 5698 5708 5713 5722 5729 5738 5746 5756 5760 5769 5778 5785 5792 5801 5810 5817 5823
5675 5660 5648 5639 5631 5622 5611 5600 5587 5574 5562 5556 5554 5555 5557 5557 5560 5568 5580 5591 5603 5617 5627 5641 5655 5665 5673 5683 5693 5701 5708 5714 5724 5733 5742 5750 5755 5763 5772 5779 5786 5795 5804 5811 5816
5674 5658 5646 5636 5628 5620 5608 5598 5587 5574 5563 5556 5552 5551 5553 5555 5555 5560 5570 5585 5595 5613 5624 5637 5648 5659 5670 5679 5687 5695 5702 5707 5717 5727 5736 5744 5750 5760 5767 5773 5780 5788 5798 5804 5810
5672 5657 5645 5635 5627 5619 5608 5598 5587 5575 5563 5555 5552 5550 5550 5552 5553 5555 5564 5579 5592 5605 5621 5631 5642 5654 5665 5675 5682 5688 5696 5701 5713 5721 5726 5735 5747 5759 5760 5765 5772 5780 5790 5797 5805
5670 5657 5644 5634 5626 5618 5609 5599 5588 5576 5565 5556 5551 5550 5550 5551 5552 5554 5560 5574 5590 5600 5616 5627 5638 5649 5660 5669 5677 5684 5694 5704 5711 5717 5723 5731 5743 5750 5752 5759 5766 5773 5782 5789 5795
5670 5658 5644 5635 5627 5619 5609 5600 5589 5578 5566 5557 5552 5552 5550 5551 5551 5552 5557 5571 5586 5597 5611 5623 5637 5644 5656 5667 5678 5686 5691 5702 5710 5718 5722 5726 5735 5740 5747 5750 5759 5765 5772 5780 5786
5671 5657 5645 5636 5627 5620 5610 5602 5593 5582 5568 5560 5552 5551 5550 5551 5550 5552 5559 5569 5583 5596 5609 5623 5633 5646 5661 5669 5676 5684 5691 5699 5706 5711 5713 5720 5724 5732 5740 5747 5748 5755 5763 5771 5778
5671 5659 5647 5636 5629 5621 5613 5604 5594 5585 5571 5560 5553 5551 5551 5551 5550 5552 5560 5568 5580 5594 5609 5622 5635 5644 5655 5665 5674 5681 5687 5695 5700 5704 5709 5712 5720 5725 5731 5739 5744 5748 5756 5763 5769
5673 5658 5647 5638 5630 5623 5615 5607 5597 5587 5576 5565 5557 5553 5551 5552 5552 5556 5563 5570 5582 5595 5609 5623 5636 5643 5652 5662 5672 5680 5686 5692 5697 5700 5703 5707 5711 5718 5728 5734 5738 5742 5750 5756 5762
5673 5659 5647 5638 5633 5625 5619 5612 5602 5593 5581 5572 5564 5557 5554 5553 5558 5560 5568 5574 5585 5598 5613 5625 5634 5644 5653 5661 5670 5677 5685 5689 5693 5697 5701 5701 5709 5716 5721 5726 5732 5740 5747 5753 5758
5674 5661 5648 5637 5631 5626 5621 5615 5608 5599 5589 5581 5571 5564 5560 5561 5563 5567 5572 5578 5589 5601 5617 5629 5638 5646 5653 5661 5667 5675 5681 5687 5692 5695 5699 5703 5704 5715 5715 5721 5731 5739 5742 5747 5752
5677 5663 5649 5640 5633 5628 5622 5618 5613 5607 5597 5589 5582 5572 5567 5565 5569 5572 5575 5586 5598 5609 5621 5629 5638 5645 5651 5659 5666 5672 5678 5685 5690 5694 5697 5700 5706 5713 5713 5720 5723 5725 5728 5735 5743
5678 5664 5651 5641 5635 5628 5624 5622 5620 5613 5607 5600 5592 5584 5579 5576 5577 5582 5591 5602 5612 5620 5625 5632 5638 5647 5653 5658 5665 5670 5675 5682 5688 5690 5695 5699 5703 5710 5708 5712 5716 5720 5724 5728 5734
5680 5669 5655 5643 5635 5630 5628 5625 5622 5618 5612 5608 5602 5597 5594 5594 5592 5595 5603 5611 5617 5622 5628 5634 5640 5646 5653 5658 5664 5667 5674 5679 5684 5688 5692 5697 5699 5702 5704 5705 5708 5712 5715 5721 5727
5682 5671 5657 5645 5637 5631 5628 5625 5623 5622 5619 5614 5610 5608 5606 5608 5611 5609 5610 5614 5620 5625 5630 5633 5641 5648 5653 5658 5664 5668 5673 5677 5681 5686 5690 5695 5696 5697 5699 5700 5701 5704 5708 5714 5719
5684 5673 5661 5648 5638 5632 5628 5626 5624 5624 5622 5621 5618 5615 5616 5615 5619 5621 5621 5622 5625 5628 5632 5638 5645 5650 5654 5658 5663 5667 5672 5675 5679 5683 5687 5690 5692 5694 5693 5694 5695 5697 5700 5704 5708
5684 5674 5663 5650 5640 5632 5627 5625 5624 5624 5624 5624 5623 5621 5620 5622 5623 5624 5626 5627 5629 5632 5637 5641 5647 5651 5655 5658 5661 5665 5668 5670 5675 5678 5681 5685 5688 5688 5687 5687 5689 5690 5692 5695 5698
5683 5675 5664 5651 5642 5632 5627 5623 5623 5623 5623 5624 5625 5624 5623 5624 5624 5626 5627 5626 5628 5631 5637 5641 5645 5648 5653 5657 5659 5662 5665 5668 5670 5674 5677 5678 5682 5683 5683 5681 5683 5683 5685 5689 5692
5682 5674 5664 5652 5641 5632 5625 5622 5621 5621 5622 5623 5624 5626 5625 5624 5625 5626 5627 5629 5631 5634 5636 5639 5643 5646 5649 5653 5654 5656 5660 5663 5665 5667 5670 5672 5677 5678 5677 5676 5675 5678 5679 5682 5685
5681 5673 5663 5650 5639 5630 5623 5620 5618 5620 5620 5622 5623 5625 5626 5626 5626 5626 5629 5630 5632 5634 5637 5640 5642 5644 5647 5648 5651 5654 5657 5659 5661 5663 5664 5667 5670 5672 5671 5671 5671 5672 5673 5674 5676
5680 5671 5662 5651 5638 5629 5621 5617 5615 5616 5618 5619 5622 5623 5625 5626 5626 5626 5627 5629 5631 5633 5634 5637 5639 5640 5642 5643 5644 5647 5649 5651 5652 5657 5656 5662 5663 5666 5666 5665 5666 5667 5669 5669 5671
5679 5672 5661 5651 5639 5626 5618 5615 5613 5613 5615 5617 5619 5621 5624 5625 5625 5625 5626 5628 5629 5631 5632 5634 5635 5635 5637 5638 5639 5640 5642 5644 5646 5649 5650 5655 5658 5659 5657 5658 5660 5662 5663 5664 5665
5676 5670 5661 5652 5641 5629 5619 5612 5610 5610 5614 5616 5616 5618 5620 5622 5623 5624 5625 5625 5626 5628 5629 5630 5631 5632 5633 5633 5634 5637 5638 5639 5641 5643 5645 5645 5652 5650 5651 5653 5654 5654 5655 5656 5657